196P/Tichy (2000)

Japanese version
Home page
Total 6,336 html files since Dec. 4, 1995
Updated on February 10, 2008

---------------------------------------------------------------------

* Profile

Designation 196P/2000 U6
Discovery Date October 23, 2000
Magnitude 17.8 mag
Discoverer Milos Tichy (Klet)

* Orbital Elements

                    Epoch = 2000 Oct. 23.0 TT
     T = 2000 Oct.  4.6044 TT         Peri. =  11.8524
     e = 0.431372                     Node  =  24.4340  2000.0
     q = 2.154867 AU                  Incl. =  19.3690
       a =  3.789587 AU    n = 0.1336030    P =   7.38 years

* Finding Charts

* Magnitudes Graph

        m1 = 12.5 + 5 log d + 15.0 log r

---------------------------------------------------------------------

The orbital elements are printed on IAUC 8917.
The charts are made with StellaNavigator Ver.2.0 for Windows (AstroArts / ASCII).
The magnitudes graphs are made with Comet for Windows.

---------------------------------------------------------------------

Copyright(C) 1995-2008 Seiichi Yoshida (comet@aerith.net). All rights reserved.